Fremont, NE

9:54 AM CDT on September 26, 2017 (GMT -0500)
Fremont Municipal

Weather History for KFET - February, 2013

Change the Weather History Date:

Wednesday, February 13, 2013

  Actual Average Record
Temperature  
Mean Temperature 38 °F -  
Max Temperature 54 °F 38 °F 66 °F (1967)
Min Temperature 22 °F 16 °F -7 °F (1986)
Degree Days  
Heating Degree Days 27    
Moisture  
Dew Point 27 °F    
Average Humidity 71    
Maximum Humidity 99    
Minimum Humidity 32    
Precipitation  
Precipitation 0.01 in - - ()
Sea Level Pressure  
Sea Level Pressure 29.80 in    
Wind  
Wind Speed 4 mph (WSW)    
Max Wind Speed 15 mph    
Max Gust Speed 21 mph    
Visibility 10 miles    
Events      
Averages and records for this station are not official NWS values.
T = Trace of Precipitation, MM = Missing Value Source: NWS Daily Summary

Daily Weather History Graph

Daily Weather History Graph

Search for Another Location

Airport or City:

Trip Planner

Search our weather history database for the weather conditions in past years. The results will help you decide how hot, cold, wet, or windy it might be!

Date:

Astronomy

Feb. 13, 2013 Rise Set
Actual Time 7:23 AM CST 5:57 PM CST
Civil Twilight 6:54 AM CST 6:26 PM CST
Nautical Twilight 6:22 AM CST 6:58 PM CST
Astronomical Twilight 5:50 AM CST 7:30 PM CST
Moon 8:50 AM CST (2/13) 10:05 PM CST (2/13)
Length of Visible Light 11h 31m
Length of Day
10h 34m
Waxing Crescent, 14% of the Moon is Illuminated
Feb 13
Waxing Crescent
Feb 17
First Quarter
Feb 25
Full
Mar 4
Last Quarter
Mar 11
New

Hourly Weather History & Observations

Time (CST) Temp. Windchill Dew Point Humidity Pressure Visibility Wind Dir Wind Speed Gust Speed Precip Events Conditions
12:15 AM 26.4 °F - 23.9 °F 90% 29.90 in 10.0 mi Calm Calm - N/A   Clear
12:35 AM 26.4 °F - 23.9 °F 90% 29.90 in 10.0 mi Calm Calm - N/A   Clear
12:55 AM 24.3 °F - 22.6 °F 94% 29.90 in 10.0 mi Calm Calm - N/A   Clear
1:15 AM 26.1 °F - 24.1 °F 92% 29.89 in 10.0 mi Calm Calm - N/A   Clear
1:35 AM 27.1 °F - 25.0 °F 92% 29.89 in 10.0 mi Calm Calm - N/A   Clear
1:55 AM 27.0 °F - 24.4 °F 90% 29.89 in 10.0 mi Calm Calm - N/A   Clear
2:15 AM 26.6 °F - 24.4 °F 92% 29.89 in 10.0 mi Calm Calm - N/A   Clear
2:35 AM 25.9 °F - 23.9 °F 92% 29.89 in 10.0 mi Calm Calm - N/A   Clear
2:55 AM 25.7 °F - 23.9 °F 93% 29.88 in 10.0 mi Calm Calm - N/A   Clear
3:15 AM 25.0 °F - 23.2 °F 93% 29.88 in 10.0 mi Calm Calm - N/A   Clear
3:35 AM 23.9 °F - 23.0 °F 96% 29.87 in 10.0 mi Calm Calm - N/A   Clear
3:55 AM 23.9 °F - 23.2 °F 97% 29.87 in 10.0 mi Calm Calm - N/A   Clear
4:15 AM 24.3 °F - 23.5 °F 97% 29.86 in 10.0 mi Calm Calm - N/A   Clear
4:35 AM 24.4 °F - 23.7 °F 97% 29.86 in 10.0 mi Calm Calm - N/A   Clear
4:55 AM 23.5 °F - 22.5 °F 96% 29.86 in 10.0 mi Calm Calm - N/A   Clear
5:15 AM 23.7 °F - 23.0 °F 97% 29.86 in 10.0 mi Calm Calm - N/A   Clear
5:35 AM 22.6 °F 18.0 °F 21.4 °F 95% 29.85 in 10.0 mi West 3.5 mph - N/A   Clear
5:55 AM 22.1 °F 15.9 °F 21.7 °F 99% 29.86 in 10.0 mi WNW 4.6 mph - N/A   Clear
6:15 AM 23.0 °F - 22.5 °F 98% 29.85 in 10.0 mi Calm Calm - N/A   Clear
6:35 AM 23.5 °F - 22.6 °F 96% 29.85 in 10.0 mi Calm Calm - N/A   Clear
6:55 AM 22.8 °F - 22.1 °F 97% 29.85 in 10.0 mi Calm Calm - N/A   Clear
7:15 AM 23.0 °F - 22.1 °F 96% 29.85 in 10.0 mi Calm Calm - N/A   Clear
7:35 AM 24.1 °F - 23.4 °F 97% 29.85 in 10.0 mi Calm Calm - N/A   Clear
7:55 AM 24.8 °F - 24.1 °F 97% 29.86 in 10.0 mi Calm Calm - N/A   Clear
8:15 AM 27.3 °F - 26.2 °F 96% 29.86 in 7.0 mi Calm Calm - 0.01 in   Clear
8:35 AM 29.5 °F - 27.3 °F 92% 29.85 in 10.0 mi Calm Calm - 0.01 in   Clear
8:55 AM 29.7 °F 26.1 °F 26.6 °F 88% 29.85 in 10.0 mi SW 3.5 mph - 0.01 in   Clear
9:15 AM 31.8 °F 26.2 °F 28.4 °F 87% 29.85 in 10.0 mi SW 5.8 mph - N/A   Clear
9:35 AM 33.8 °F 27.7 °F 28.6 °F 81% 29.85 in 10.0 mi WSW 6.9 mph - N/A   Unknown
9:55 AM 35.6 °F 29.9 °F 28.8 °F 76% 29.84 in 10.0 mi WSW 6.9 mph - N/A   Unknown
10:15 AM 37.2 °F 34.7 °F 29.3 °F 73% 29.84 in 10.0 mi SW 3.5 mph - N/A   Unknown
10:35 AM 39.4 °F 37.2 °F 29.5 °F 68% 29.84 in 10.0 mi WSW 3.5 mph - N/A   Clear
10:55 AM 41.5 °F - 30.4 °F 65% 29.83 in 10.0 mi Calm Calm - N/A   Clear
11:15 AM 44.1 °F 41.5 °F 31.3 °F 61% 29.83 in 10.0 mi SSW 4.6 mph - N/A   Clear
11:35 AM 46.8 °F - 31.5 °F 55% 29.82 in 10.0 mi SSW 8.1 mph - N/A   Clear
11:55 AM 48.0 °F - 30.9 °F 52% 29.81 in 10.0 mi SSW 10.4 mph - N/A   Clear
12:15 PM 49.5 °F - 30.0 °F 47% 29.80 in 10.0 mi SW 11.5 mph - N/A   Clear
12:35 PM 50.7 °F - 29.8 °F 45% 29.79 in 10.0 mi SW 9.2 mph - N/A   Clear
12:55 PM 51.3 °F - 28.6 °F 42% 29.78 in 10.0 mi SW 10.4 mph 16.1 mph N/A   Clear
1:15 PM 52.0 °F - 28.4 °F 40% 29.77 in 10.0 mi WSW 12.7 mph - N/A   Clear
1:35 PM 53.2 °F - 28.0 °F 38% 29.77 in 10.0 mi WSW 11.5 mph 16.1 mph N/A   Clear
1:55 PM 53.6 °F - 25.5 °F 34% 29.76 in 10.0 mi WSW 13.8 mph - N/A   Clear
2:15 PM 53.8 °F - 25.7 °F 34% 29.75 in 10.0 mi WSW 15.0 mph 20.7 mph N/A   Clear
2:35 PM 54.3 °F - 25.0 °F 32% 29.74 in 10.0 mi West 12.7 mph - N/A   Scattered Clouds
2:55 PM 54.5 °F - 25.5 °F 33% 29.74 in 10.0 mi WSW 13.8 mph 17.3 mph N/A   Clear
3:15 PM 54.5 °F - 25.2 °F 32% 29.72 in 10.0 mi West 11.5 mph 19.6 mph N/A   Clear
3:35 PM 53.6 °F - 25.2 °F 33% 29.72 in 10.0 mi WSW 10.4 mph 18.4 mph N/A   Clear
3:55 PM 54.3 °F - 25.2 °F 32% 29.72 in 10.0 mi WSW 11.5 mph 18.4 mph N/A   Clear
4:15 PM 54.0 °F - 25.5 °F 33% 29.72 in 10.0 mi WSW 10.4 mph 20.7 mph N/A   Clear
4:35 PM 54.0 °F - 25.3 °F 33% 29.72 in 10.0 mi WSW 10.4 mph - N/A   Unknown
4:55 PM 53.2 °F - 26.8 °F 36% 29.72 in 10.0 mi SW 10.4 mph - N/A   Mostly Cloudy
5:15 PM 51.8 °F - 26.8 °F 38% 29.72 in 10.0 mi SW 8.1 mph - N/A   Overcast
5:35 PM 50.9 °F - 26.6 °F 39% 29.72 in 10.0 mi WSW 8.1 mph - N/A   Overcast
5:55 PM 50.7 °F - 27.9 °F 41% 29.72 in 10.0 mi West 10.4 mph - N/A   Overcast
6:15 PM 47.3 °F - 29.1 °F 49% 29.73 in 10.0 mi West 9.2 mph - N/A   Scattered Clouds
6:35 PM 43.5 °F 38.9 °F 29.5 °F 58% 29.73 in 10.0 mi WNW 8.1 mph - N/A   Clear
6:55 PM 40.5 °F 35.1 °F 29.8 °F 66% 29.73 in 10.0 mi West 8.1 mph - N/A   Clear
7:15 PM 43.0 °F 38.2 °F 30.2 °F 61% 29.74 in 10.0 mi West 8.1 mph - N/A   Mostly Cloudy
7:35 PM 40.1 °F 35.3 °F 29.7 °F 66% 29.74 in 10.0 mi West 6.9 mph - N/A   Scattered Clouds
7:55 PM 40.1 °F 36.9 °F 30.2 °F 68% 29.74 in 10.0 mi West 4.6 mph - N/A   Mostly Cloudy
8:15 PM 45.0 °F 40.1 °F 30.2 °F 56% 29.74 in 10.0 mi West 9.2 mph - N/A   Overcast
8:35 PM 44.2 °F 39.2 °F 29.8 °F 57% 29.74 in 10.0 mi WSW 9.2 mph - N/A   Mostly Cloudy
8:55 PM 39.4 °F 34.5 °F 29.8 °F 69% 29.74 in 10.0 mi West 6.9 mph - N/A   Mostly Cloudy
9:15 PM 36.5 °F 30.3 °F 29.3 °F 75% 29.75 in 10.0 mi West 8.1 mph - N/A   Scattered Clouds
9:35 PM 35.1 °F 28.6 °F 29.3 °F 80% 29.75 in 10.0 mi WNW 8.1 mph - N/A   Clear
9:55 PM 34.3 °F 27.7 °F 30.0 °F 84% 29.76 in 10.0 mi WNW 8.1 mph - N/A   Scattered Clouds
10:15 PM 36.5 °F 29.2 °F 31.1 °F 81% 29.76 in 10.0 mi West 10.4 mph - N/A   Mostly Cloudy
10:35 PM 38.1 °F 30.7 °F 31.5 °F 77% 29.77 in 10.0 mi West 11.5 mph - N/A   Overcast
10:55 PM 38.7 °F 31.4 °F 31.1 °F 74% 29.77 in 10.0 mi West 11.5 mph - N/A   Scattered Clouds
11:15 PM 37.8 °F 30.7 °F 31.1 °F 77% 29.77 in 10.0 mi West 10.4 mph - N/A   Clear
11:35 PM 36.7 °F 29.4 °F 31.1 °F 80% 29.78 in 10.0 mi West 10.4 mph - N/A   Scattered Clouds
11:55 PM 38.3 °F 30.1 °F 31.6 °F 77% 29.79 in 10.0 mi West 13.8 mph - N/A   Scattered Clouds